FW6870 Weather Reports


Display with metric or nautical units.
time (UTC)temp
F
wind
direction
speed
MPH
gust
MPH
rain 1hr
in
rain 24hr
in
rain mn
in
humidity
%
barometer
mb
20260508224531 66 219 4.0 8.0 0.00 0.00 0.00 68 1014.8
20260508223029 66 227 5.0 9.0 0.00 0.00 0.00 66 1014.7
20260508221529 66 219 4.0 7.0 0.00 0.00 0.00 65 1014.8
20260508220028 67 75 3.0 5.0 0.00 0.00 0.00 65 1014.8
20260508214530 67 75 2.0 7.0 0.00 0.00 0.00 63 1014.7
20260508213027 67 80 4.0 8.0 0.00 0.00 0.00 61 1014.6
20260508211529 67 72 3.0 9.0 0.00 0.00 0.00 61 1014.7
20260508210032 67 68 5.0 10.0 0.00 0.00 0.00 60 1015.0
20260508204530 67 72 4.0 9.0 0.00 0.00 0.00 61 1014.9
20260508203031 68 78 4.0 8.0 0.00 0.00 0.00 59 1014.9
20260508201530 67 74 4.0 9.0 0.00 0.00 0.00 60 1015.2
20260508200031 67 88 2.0 10.0 0.00 0.00 0.00 58 1015.3
20260508194526 67 76 2.0 10.0 0.00 0.00 0.00 59 1015.4
20260508193028 68 69 5.0 12.0 0.00 0.00 0.00 59 1015.9
20260508191528 68 78 3.0 8.0 0.00 0.00 0.00 57 1016.0
20260508190038 68 59 5.0 14.0 0.00 0.00 0.00 61 1016.1
20260508184527 68 67 5.0 10.0 0.00 0.00 0.00 58 1016.2
20260508183028 67 0 1.0 11.0 0.00 0.00 0.00 58 1016.5
20260508181528 66 157 2.0 10.0 0.00 0.00 0.00 58 1016.7
20260508180028 66 79 2.0 5.0 0.00 0.00 0.00 58 1017.0
20260508174544 67 165 5.0 10.0 0.00 0.00 0.00 56 1017.2
20260508173032 66 204 3.0 13.0 0.00 0.00 0.00 58 1017.3
20260508171528 65 195 6.0 10.0 0.00 0.00 0.00 59 1017.5
20260508170031 64 184 5.0 14.0 0.00 0.00 0.00 60 1017.7
20260508164527 64 142 3.0 12.0 0.00 0.00 0.00 59 1018.1
20260508163041 65 183 8.0 12.0 0.00 0.00 0.00 57 1018.2
20260508161529 64 183 3.0 11.0 0.00 0.00 0.00 61 1018.4
20260508160027 64 134 1.0 9.0 0.00 0.00 0.00 64 1018.3
20260508154528 63 171 3.0 13.0 0.00 0.00 0.00 64 1018.4
20260508153031 63 192 4.0 8.0 0.00 0.00 0.00 66 1018.7
20260508151535 62 186 3.0 8.0 0.00 0.00 0.00 62 1018.9
20260508150031 61 140 4.0 9.0 0.00 0.00 0.00 64 1018.8
20260508144534 61 96 3.0 9.0 0.00 0.00 0.00 70 1018.8
20260508143025 61 136 3.0 8.0 0.00 0.00 0.00 70 1018.7
20260508141528 60 111 6.0 9.0 0.00 0.00 0.00 70 1018.7
20260508140031 61 134 1.0 4.0 0.00 0.00 0.00 74 1018.9
20260508134534 59 129 3.0 6.0 0.00 0.02 0.00 73 1019.2
20260508133029 58 126 1.0 4.0 0.00 0.02 0.00 78 1019.1
20260508131526 57 123 0.0 3.0 0.00 0.02 0.00 83 1019.2
20260508130025 55 123 0.0 3.0 0.00 0.02 0.00 86 1018.9
20260508124525 55 0 1.0 5.0 0.00 0.12 0.00 88 1018.8
20260508123033 54 69 3.0 5.0 0.00 0.12 0.00 88 1018.5
20260508121528 53 0 0.0 4.0 0.00 0.12 0.00 88 1018.2
20260508120028 52 65 3.0 8.0 0.00 0.12 0.00 89 1018.0
20260508114527 51 82 5.0 9.0 0.00 0.24 0.00 89 1017.9
20260508113026 51 52 6.0 10.0 0.00 0.24 0.00 88 1017.5
20260508111526 51 58 6.0 10.0 0.00 0.24 0.00 87 1017.3
20260508110031 51 56 8.0 11.0 0.00 0.24 0.00 86 1016.8
20260508104528 52 61 7.0 12.0 0.00 0.33 0.00 85 1016.6
20260508103032 51 58 7.0 10.0 0.00 0.33 0.00 86 1016.4
20260508101535 52 58 6.0 12.0 0.00 0.33 0.00 84 1016.2
20260508100027 52 63 6.0 10.0 0.00 0.33 0.00 85 1015.9
20260508094529 53 60 6.0 9.0 0.00 0.37 0.00 84 1015.7
20260508093042 52 63 6.0 10.0 0.00 0.37 0.00 84 1015.7
20260508091526 51 66 4.0 10.0 0.00 0.37 0.00 86 1015.7
20260508090041 52 58 5.0 9.0 0.00 0.37 0.00 85 1015.5
20260508084528 53 42 8.0 10.0 0.00 0.43 0.00 80 1015.3
20260508083031 54 21 8.0 9.0 0.00 0.43 0.00 79 1015.2
20260508081527 53 5 6.0 9.0 0.00 0.43 0.00 81 1015.1
20260508080035 53 331 6.0 9.0 0.00 0.43 0.00 81 1015.2
20260508074535 54 330 5.0 8.0 0.00 0.63 0.00 81 1015.3
20260508073026 54 308 5.0 10.0 0.00 0.63 0.00 80 1015.3
20260508071528 54 317 6.0 10.0 0.00 0.63 0.00 80 1015.3
20260508070029 55 326 6.0 9.0 0.00 0.63 0.00 80 1015.3
20260508064526 55 322 7.0 10.0 0.00 0.71 0.00 80 1015.2
20260508063027 55 296 7.0 10.0 0.00 0.71 0.00 80 1015.1
20260508061529 56 310 6.0 9.0 0.00 0.71 0.00 81 1015.1
20260508060029 56 318 5.0 9.0 0.00 0.71 0.00 80 1015.2
20260508054527 56 309 6.0 8.0 0.00 0.95 0.00 80 1015.2
20260508053026 56 285 6.0 8.0 0.00 0.95 0.00 81 1015.3
20260508051527 56 293 5.0 8.0 0.00 0.95 0.00 82 1015.3
20260508050029 57 288 5.0 7.0 0.00 0.95 0.00 81 1015.3
20260508044530 57 309 4.0 8.0 0.00 1.16 0.00 80 1015.2
20260508043026 57 284 5.0 7.0 0.00 1.16 0.00 79 1015.0
20260508041534 57 294 4.0 7.0 0.00 1.16 0.00 80 1015.0
20260508040030 57 292 4.0 7.0 0.00 1.16 0.00 80 1014.8
20260508034528 58 298 4.0 7.0 0.00 1.17 1.16 79 1014.9
20260508033035 58 286 4.0 7.0 0.00 1.17 1.16 78 1014.7
20260508031526 59 282 5.0 8.0 0.00 1.17 1.16 76 1014.9
20260508030037 59 294 5.0 8.0 0.00 1.17 1.16 76 1014.7
20260508024528 60 309 5.0 8.0 0.00 1.17 1.16 75 1014.7
20260508023039 60 300 5.0 8.0 0.00 1.17 1.16 74 1014.4
20260508021533 60 313 4.0 10.0 0.00 1.17 1.16 74 1014.1
20260508020028 61 313 7.0 12.0 0.00 1.17 1.16 73 1014.1
20260508014533 61 320 7.0 11.0 0.00 1.25 1.16 72 1013.9
20260508013027 62 311 6.0 12.0 0.00 1.25 1.16 70 1013.7
20260508011527 62 327 6.0 10.0 0.00 1.25 1.16 70 1013.4
20260508010039 63 323 7.0 15.0 0.00 1.25 1.16 69 1013.2
20260508004531 63 355 9.0 14.0 0.00 2.32 1.16 69 1012.9
20260508003029 64 329 10.0 15.0 0.00 2.32 1.16 68 1012.7
20260508001534 64 318 7.0 14.0 0.00 2.32 1.16 68 1012.7
20260508000031 65 313 12.0 19.0 0.00 2.32 1.16 66 1012.1
20260507234534 66 300 9.0 19.0 0.00 2.33 1.16 65 1011.8
20260507233028 67 306 11.0 22.0 0.00 2.33 1.16 64 1011.8
20260507231527 68 311 11.0 19.0 0.00 2.33 1.16 63 1011.6
20260507230030 69 355 7.0 18.0 0.00 2.33 1.16 64 1011.4